Volver al catálogo

COSMOS 249 DEB

ActivoLEO
NORAD 20011·DEBRIS·🇷🇺 Russia

Lanzado Oct 20, 1968 desde Baikonur Cosmodrome

Loading…

Próximos Pases (próximas 24 horas)

TLE

ActualizadoSource: Space-Track

Época: Sep 14, 2026, 06:20 UTC

1 20011U 68091DN  26257.26427941  .00001376  00000-0  15257-2 0  9994
2 20011  62.2229 204.0759 0630276 327.9943  28.4181 13.11285888654584

Sigue COSMOS 249 DEB en tiempo real con AllMySat

Download on the App Store